Home > Weather > Alicante > Past weeks

Flag for Spain Weather for the Past 2 Weeks in Alicante, Spain

Now
66 °F

Passing clouds.


Feels Like: 66 °F
Forecast: 54 / 67 °F
Wind: 5 mph from Southwest

Location: Alicante / El Altet

Current Time: Feb 13, 2016 at 4:38:39 AM

Latest Report: Feb 13, 2016 at 3:30 AM


Visibility: N/A

Pressure: 29.80 "Hg

Humidity: 60%

Dew point: 52 °F

Location of AlicanteLocation

Historic Weather in Alicante — Graph

°F

Alicante Temperature Yesterday

Maximum temperature yesterday: 75 °F (at 2:30 PM)
Minimum temperature yesterday: 54 °F (at 6:30 AM)
Average temperature yesterday: 66 °F

High & Low Weather Summary for the Past Weeks

 TemperatureHumidityPressure
High77 °F (Feb 11, 1:30 PM)94% (Jan 29, 3:00 AM)30.63 "Hg (Jan 29, 3:00 AM)
Low45 °F (Feb 2, 7:30 AM)25% (Feb 7, 2:30 PM)29.80 "Hg (Feb 12, 3:00 PM)
Average60 °F63%30.24 "Hg
* Reported Jan 29 3:00 AM — Feb 13 3:30 AM, Alicante, Weather by CustomWeather, © 2016

Note: Actual official high and low records may vary slightly from our data, if they occured in-between our weather recording intervals... More about our weather records

Advertising

Alicante Weather History for the Previous 24 Hours

 ConditionsComfort  
Time TempWeatherWind HumidityBarometerVisibility
3:30 AM
Sat, Feb 13
66 °FPassing clouds.5 mph60%29.80 "HgN/A
3:00 AM66 °FPassing clouds.7 mph60%29.80 "HgN/A
2:30 AM66 °FPassing clouds.6 mph60%29.80 "HgN/A
2:00 AM66 °FPassing clouds.7 mph60%29.80 "HgN/A
1:30 AM66 °FClear.7 mph60%29.80 "Hg10 mi
1:00 AM68 °FClear.8 mph56%29.80 "Hg10 mi
12:30 AM68 °FClear.10 mph56%29.80 "Hg10 mi
12:00 AM66 °FClear.13 mph56%29.80 "Hg10 mi
11:30 PM
Fri, Feb 12
68 °FPassing clouds.12 mph53%29.80 "HgN/A
11:00 PM68 °FPassing clouds.9 mph53%29.80 "HgN/A
10:30 PM68 °FPassing clouds.9 mph53%29.80 "HgN/A
10:00 PM68 °FPassing clouds.10 mph53%29.80 "HgN/A
9:30 PM68 °FPassing clouds.8 mph53%29.80 "HgN/A
9:00 PM66 °FPassing clouds.7 mph60%29.80 "HgN/A
8:30 PM68 °FPassing clouds.7 mph53%29.80 "HgN/A
8:00 PM68 °FPassing clouds.7 mph53%29.80 "HgN/A
7:30 PM73 °FPassing clouds.20 mph41%29.80 "HgN/A
7:00 PM73 °FPassing clouds.15 mph41%29.80 "HgN/A
6:30 PM73 °FScattered clouds.17 mph41%29.80 "HgN/A
6:00 PM75 °FScattered clouds.16 mph36%29.80 "HgN/A
5:30 PM75 °FScattered clouds.16 mph36%29.80 "HgN/A
5:00 PM75 °FScattered clouds.14 mph36%29.80 "HgN/A
4:30 PM75 °FScattered clouds.14 mph36%29.80 "HgN/A
4:00 PM75 °FScattered clouds.13 mph36%29.80 "HgN/A
3:30 PM75 °FScattered clouds.14 mph36%29.80 "HgN/A
3:00 PM75 °FScattered clouds.15 mph36%29.80 "HgN/A
2:30 PM75 °FPassing clouds.16 mph36%29.83 "HgN/A
2:00 PM73 °FPassing clouds.16 mph38%29.83 "HgN/A
1:30 PM72 °FPassing clouds.16 mph38%29.86 "HgN/A
1:00 PM72 °FPassing clouds.15 mph38%29.86 "HgN/A
12:30 PM68 °FPartly sunny.12 mph46%29.89 "HgN/A
12:00 PM66 °FPartly sunny.13 mph49%29.89 "HgN/A
11:30 AM66 °FPassing clouds.10 mph46%29.92 "HgN/A
11:00 AM64 °FPassing clouds.6 mph52%29.92 "HgN/A
10:30 AM64 °FPassing clouds.6 mph49%29.89 "HgN/A
10:00 AM63 °FPassing clouds.2 mph52%29.89 "HgN/A
9:30 AM59 °FPassing clouds.6 mph59%29.92 "HgN/A
9:00 AM55 °FPassing clouds.3 mph67%29.92 "HgN/A
8:30 AM55 °FPassing clouds.3 mph63%29.92 "HgN/A
8:00 AM55 °FPassing clouds.5 mph63%29.92 "HgN/A
7:30 AM55 °FPassing clouds.7 mph63%29.92 "HgN/A
7:00 AM55 °FClear.8 mph63%29.92 "Hg10 mi
6:30 AM54 °FClear.7 mph67%29.95 "Hg10 mi
6:00 AM55 °FPassing clouds.5 mph63%29.92 "HgN/A
5:30 AM55 °FClear.3 mph63%29.92 "Hg10 mi
5:00 AM59 °FClear.7 mph55%29.89 "Hg10 mi
4:30 AM59 °FPassing clouds.3 mph59%29.95 "HgN/A
4:00 AM59 °FClear.5 mph59%29.92 "Hg10 mi
Weather by CustomWeather, © 2016

See weather overviewHow to use our weather pages